sat.trackr.live / text

‹ back to catalog

STARLINK-36818

NORAD 67879 · 2026-035A

PAYLOAD ACTIVE UNKNOWN

§ Identity

Operator
Country
US
Launch date
2026-02-21
Launch site
AFWTR
Launch vehicle
Mass (kg)
RCS (m²)

Purposes: comms

External: N2YO · Heavens-Above · Gunter

§ Orbital elements

Epoch: 2026-05-24T18:33:22.671648Z

Period
93.91 min
Inclination
97.2845°
Eccentricity
0.0001684
Mean motion
15.33449143 rev/d
Perigee alt
464.4 km
Apogee alt
466.7 km
Semi-major
6,843.7 km
B*
6.2400e-4
RAAN
78.2347°
Arg perigee
87.9806°
Mean anomaly
272.1630°
Rev number
1,564

§ Raw data

STARLINK-368181 67879U 26035A   26144.77317907  .00020127  00000+0  62400-3 0  99972 67879  97.2845  78.2347 0001684  87.9806 272.1630 15.33449143 15646

JSON: /api/v1/satellites/67879 · /tle

For live sub-satellite position, see the globe view (requires WebGL).

§ Visibility from observer

Set your observer location to see the next 7 days of passes ≥ 10°. The values pass through the URL so the page stays shareable.

No JS? Fill the form by hand. The geolocation button needs JavaScript.